Regional Weather Roundup
Issued by NWS Goodland, KS

Home | Current Version | Previous Version | Graphics & Text | Print | Product List | Glossary On
Versions: 1 2 3 4 5 6 7 8 9 10 11 12 13 14 15 16 17 18 19 20 21 22 23 24 25 26 27 28 29 30 31 32 33 34 35 36 37 38 39 40 41 42 43 44 45 46 47 48 49 50
000
ASUS43 KGLD 221459
RWRGLD

GOODLAND FORECAST AREA HOURLY WEATHER ROUNDUP
NATIONAL WEATHER SERVICE GOODLAND KS
900 AM MDT FRI AUG 22 2014

...OFFICIAL OBSERVATIONS...

CITY           SKY/WX    TMP DP  RH WIND       PRES   REMARKS
GOODLAND KS    SUNNY     77  57  50 N15G24    30.04R
HILL CITY KS   MOSUNNY   80  68  66 NW10      29.98R
IMPERIAL NEB   PTSUNNY   71  59  65 N13G21    30.03R
MCCOOK NEB     MOSUNNY   81  65  58 N15G24    30.00S
AKRON CO       CLOUDY    63  59  87 NW8       30.12F
BURLINGTON CO  MOSUNNY   73  56  54 N16       30.09R
LIMON CO       CLOUDY    67  55  65 N15       30.16S
$$

...UNOFFICIAL OBSERVATIONS...

CITY           SKY/WX    TMP DP  RH WIND       PRES   REMARKS
COLBY KS       SUNNY     79  66  65 N20       30.01F
LENORA KS        N/A     75  32  20 CALM        N/A
NORTON KS      SUNNY     79  64  61 NW3       29.98S
SHARON SPRINGS   N/A     79  62  56 NE13        N/A
WAKEENEY KS      N/A     75  67  77 MISG        N/A
KIT CARSON CO    N/A     72  57  59 MISG        N/A
YUMA CO          N/A     68  59  74 N12         N/A
$$


USA.gov is the U.S. government's official web portal to all federal, state and local government web resources and services.